Location: B?ogocice
(50.2413°N, 20.2361°E)
Time: 23:09:00
(UTC+00:00)

H-2A R/B - Pass Details

Date: 15 June 2024
Orbit: 553 x 568 km, 98.1° (Epoch: 18 July)

Event Time Altitude Azimuth Distance (km) Brightness Sun altitude
Rises 00:23:59 0° 17° (NNE) 2,747 8.8 -12.9°
Reaches altitude 10° 00:26:10 10° 21° (NNE) 1,847 7.5 -12.7°
Maximum altitude 00:30:06 59° 102° (ESE) 650 3.7 -12.5°
Enters shadow 00:33:12 16° 179° (S) 1,506 5.0 -12.3°
